STARLINK-32256, 60362

Orbit data source: Space-Track

STARLINK-32256, 60362 is a payload satellite owned by SpaceX/Seattle (US) in LEO that was launched on Sun, 04 Aug 2024 UTC via an FALCON 9 launch vehicle from the Air Force Western Test Range (AFWTR). Payload-class satellites include a variety of spacecraft equipped with specific instruments for various scientific and technological missions. These include communications satellites like Starlink; space stations such as the ISS; scientific satellites like the Hubble; Earth observation satellites from companies like Planet Labs, Umbra, and HawkEye 360; GPS; miniature CubeSats for education and research; and military/defense satellites.

Loading next visibility...
Identifier
60362, 2024-138H
Orbit
LEO
Country
Flag of USUS
Related business
Manufacturer
SpaceX/Seattle
Mission
Operational Commercial Communications
Bus & Motor
STARLINK V2M, Unknown motor
Mass
730 kg wet, ~700 kg dry
Launch date (UTC)
2024-08-04 (1 year ago)
Launch vehicle
FALCON 9
Launch site
Air Force Western Test Range (AFWTR)
Object type
Payload
Rocket body
Debris
Shape & HBR
Box + 2 Pan, 17.7 m
Radar Cross Section
33.884 m², Large (>1 m²)

Expand to show TLE details & history
Last TLE update: 1 day ago

TLE from 1 day ago
0 STARLINK-32256
1 60362U 24138H   25353.22528796  .00000697  00000-0  35672-4 0  9993
2 60362  53.1617 323.6624 0001164  93.6879 266.4255 15.30191330 78294
Epoch: 2025-12-19T05:24Z
TLE epoch observation values (Epoch: 2025-12-19T05:24:24.879Z)
Latitude
-0.00003°
Longitude
154.48922°
Altitude
476.191 km
Speed
7.629 km/s
True Right ascension
21h 34m 38s
True Declination
0° 00' 00"
Sunlit
Object was in daylight at epoch
Visualization orbit readout
Latitude
Unknown
Longitude
Unknown
Altitude
Unknown
Speed
Unknown
Apparent Right ascension
Unknown
Apparent Declination
Unknown
Sunlit
N/A
Visualization observer readout
Local Sidereal Time
06:21:15
Azimuth
Unknown
Elevation
Unknown
Doppler factor
Unknown
Orbital elements
Apogee altitude
476.295 km
Perigee altitude
474.699 km
Semi-major axis
6,853.634 km
Eccentricity
0.00012
Inclination
53.1617°
RAAN
323.6624°
Arg. of periapsis
93.6879°
True anomaly
266.41219°
Mean anomaly
266.4255°
Eccentric anomaly
266.41884°
Mean motion
3.82527 °/min
Orbital period
94.11 mins
BSTAR
0.000035672
Loading maneuver chart data...
Computing Atmospheric mass density...
Loading historical data...
Loading historical data...
Loading historical data...
Loading historical data...
Loading historical data...
Loading historical data...
Loading historical data...

Documentation

Showing up to 5 results
|